User: anonymous   Login
Location: Unspecified
(0.0000°N, 0.0000°E)
Time: 15:42:29
(UTC+00:00)
Language:

UWE-2 - Orbit

View from above orbital plane
View from above orbital plane
View from above satellite
View from above satellite

Ground track
Ground track

The orbit data is extracted from the following two-line orbital elements,

1 35934U 09051D   19078.40635480 +.00000059 +00000-0 +24581-4 0  9992
2 35934 098.5740 239.7219 0007711 101.9909 258.2152 14.55836692503515
Epoch (UTC): 19 March 2019 09:45:09
Eccentricity: 0.0007711
inclination: 98.5740°
perigee height: 701 km
apogee height: 712 km
right ascension of ascending node: 239.7219°
argument of perigee: 101.9909°
revolutions per day: 14.55836692
mean anomaly at epoch: 258.2152°
orbit number at epoch: 50351

The dashed part of the orbit path shows where the satellite is in the earth's shadow,  

DLR